LUCH 5V (SDCM/PRN 141)

Last updated on Jan. 26, 2021, 8:16 a.m. UTC

1 39727U 14023A   21025.88252230 -.00000255  00000-0  00000-0 0  9991
2 39727   0.4807  33.7080 0002685 339.1230 164.8787  1.00266589 24624
UTC
Height (km)
Latitude
Longitude
Inclination
Orbital Period
UTC large
Height (km)
Speed (km/s)
/
Latitude / Longitude
Inclination (degrees)
Orbital Period (minutes)
Azimuth
Elevation
Range (km)
Doppler Factor
iOS Compass Heading
iOS Angle

Next 30 passes for location: Hong Kong

Rise time Rise Azimuth (degrees) Set time Set Azimuth (degrees) Duration Max altitude (degrees)

No matching passes for this satellites